Flag for Canada Weather past 2 weeks in Grande Prairie, Alberta, Canada

Now
59 °F

Scattered showers. Partly sunny.


Feels Like: 58 °F
Forecast: 56 / 78 °F
Wind: 7 mph from Southwest

Location: Grande Prairie

Current Time: Jul 1, 2015 at 12:03:30 AM

Latest Report: Jun 30, 2015 at 11:00 PM


Visibility: 25 mi

Pressure: 30.03 "Hg

Humidity: 88%

Dew point: 55 °F

Location of Grande PrairieLocation

Historic Weather in Grande Prairie — Graph

°F

Grande Prairie temperature yesterday

Maximum temperature yesterday: 72 °F (at 10:00 AM)
Minimum temperature yesterday: 61 °F (at 10:00 PM)
Average temperature yesterday: 66 °F

Past Weeks' High & Low Weather Summary

 TemperatureHumidityPressure
High82 °F (Jun 27, 5:00 PM)100% (Jun 23, 4:00 AM)30.21 "Hg (Jun 23, 4:00 AM)
Low45 °F (Jun 16, 5:00 AM)24% (Jun 27, 1:00 PM)29.84 "Hg (Jun 19, 5:00 AM)
Average61 °F68%30.00 "Hg
* Reported Jun 15 10:00 PM — Jun 30 10:00 PM, Grande Prairie, Weather by CustomWeather, © 2015

Note: Actual official high and low records may vary slightly from our data, if they occured in-between our weather recording intervals... More about our weather records

Advertising

Grande Prairie weather history for previous 24 hours

 ConditionsComfort  
Time TempWeatherWind HumidityBarometerVisibility
10:00 PM
Tue, Jun 30
61 °FSprinkles. Partly sunny.16 mph83%30.00 "Hg25 mi
9:53 PM63 °FSprinkles. Partly sunny.13 mph77%30.01 "Hg25 mi
9:00 PM64 °FPartly sunny.14 mph73%30.02 "Hg30 mi
8:00 PM66 °FBroken clouds.22 mph68%30.02 "Hg25 mi
7:00 PM72 °FPartly sunny.6 mph73%29.99 "Hg25 mi
6:00 PM66 °FMostly cloudy.7 mph83%30.00 "Hg15 mi
5:00 PM66 °FOvercast.6 mph83%30.00 "Hg20 mi
4:00 PM66 °FMore clouds than sun.6 mph83%30.02 "Hg25 mi
3:00 PM68 °FSprinkles. Broken clouds.9 mph73%30.02 "Hg25 mi
2:00 PM70 °FScattered showers. Broken clouds.14 mph64%30.02 "Hg20 mi
1:00 PM72 °FPartly sunny.13 mph65%30.01 "Hg20 mi
12:00 PM72 °FPartly sunny.17 mph65%30.00 "Hg15 mi
11:00 AM72 °FPartly sunny.16 mph65%29.97 "Hg20 mi
10:00 AM72 °FBroken clouds.14 mph65%29.96 "Hg20 mi
9:00 AM66 °FPartly sunny.6 mph78%29.96 "Hg20 mi
8:00 AM64 °FBroken clouds.7 mph83%29.96 "Hg25 mi
7:00 AM63 °FPartly sunny.6 mph83%29.95 "Hg25 mi
6:00 AM63 °FPassing clouds.5 mph83%29.94 "Hg25 mi
5:00 AM63 °FPassing clouds.6 mph83%29.93 "Hg25 mi
4:00 AM63 °FPassing clouds.5 mph83%29.91 "Hg25 mi
3:00 AM63 °FPassing clouds.6 mph88%29.92 "Hg25 mi
2:00 AM64 °FPassing clouds.3 mph83%29.91 "Hg25 mi
1:00 AM66 °FPartly cloudy.8 mph78%29.91 "Hg25 mi
12:00 AM64 °FPartly cloudy.2 mph83%29.89 "Hg25 mi
Weather by CustomWeather, © 2015

See weather overviewHow to use our weather pages